Location: Arconciel
(46.7463°N, 7.1247°E)
Time: 09:54:32
(UTC+00:00)

Daily predictions for brighter satellites

Satellite Brightness Start Highest point End
(mag) Time Altitude Azimuth Time Altitude Azimuth Time Altitude Azimuth
CZ-4C R/B 4.0 18:17:14 10° W 18:22:00 30° NNW 18:27:33 10° NNE
USA 81 4.2 18:17:31 10° N 18:22:41 52° E 18:27:49 10° SSE
STARLINK-1083 3.8 18:20:09 10° WNW 18:24:09 59° NNE 18:28:09 10° ESE
STARLINK-1237 4.2 18:20:25 10° SSW 18:24:09 37° SE 18:27:53 10° ENE
STARLINK-1245 3.0 18:22:07 10° SW 18:25:09 54° SE 18:28:13 10° ENE
STARLINK-1238 3.0 18:22:32 10° SW 18:25:35 54° SE 18:28:40 10° ENE
STARLINK-1205 3.0 18:23:27 10° SW 18:26:30 55° SE 18:29:35 10° ENE
Cosmos 1331 Rocket 4.2 18:21:39 10° NNW 18:26:45 55° ENE 18:31:47 10° SE
STARLINK-1204 3.0 18:23:53 10° SW 18:26:56 56° SE 18:30:01 10° ENE
Cosmos 1674 2.6 18:24:24 10° N 18:28:11 77° E 18:31:54 10° SSE
Cosmos 2219 Rocket 3.5 18:22:51 10° SW 18:28:15 45° NW 18:33:41 10° NNE
STARLINK-1202 4.1 18:24:58 10° SSW 18:28:44 40° SE 18:32:31 10° ENE
STARLINK-1125 3.8 18:24:45 10° WNW 18:28:47 62° NNE 18:32:48 10° ESE
Orbus 7S? 3.3 18:26:17 10° WNW 18:29:25 48° SW 18:31:46 10° SSE
SL-14 R/B 4.2 18:26:16 10° N 18:29:54 31° ENE 18:33:31 10° SE
KORONAS-FOTON 3.7 18:27:27 10° N 18:31:19 77° E 18:35:06 10° SSE
STARLINK-1109 3.7 18:29:03 10° WNW 18:33:05 65° NNE 18:37:06 10° ESE
STARLINK-1246 4.0 18:29:50 10° SSW 18:33:42 44° SE 18:37:35 10° ENE
Cosmos 1943 Rocket 3.4 18:32:22 10° N 18:36:52 24° NE 18:41:18 10° E
Cosmos 1980 3.8 18:32:00 10° SSW 18:37:42 86° WNW 18:43:26 10° NNE
STARLINK-1091 3.7 18:33:43 10° WNW 18:37:45 69° NNE 18:41:39 11° ESE
Cosmos 1766 3.2 18:34:05 10° S 18:38:04 72° E 18:42:03 10° NNE
S3M 4.0 18:33:35 10° S 18:39:55 76° E 18:46:20 10° NNE
Ariane Rocket 3.0 18:36:43 10° SSE 18:41:46 71° ENE 18:46:50 10° N
YAOGAN 1 4.2 18:38:01 10° SSW 18:42:03 38° W 18:46:06 10° NNW
Cosmos 2084 4.5 18:37:44 10° WSW 18:42:06 51° NW 18:46:30 10° NNE
STARLINK-1224 3.8 18:38:43 10° SW 18:42:37 51° SE 18:46:33 10° ENE
BREEZE-M DEB (TANK) 4.1 18:29:34 10° WNW 18:43:29 56° SW 18:47:02 10° SE
Cosmos 1386 Rocket 4.4 18:37:35 10° N 18:43:41 81° E 18:49:41 10° S
SL-08 ROCKET BODY 4.4 18:37:42 10° N 18:43:54 80° E 18:49:56 10° SSE
Cosmos 1455 Rocket 3.1 18:40:47 10° S 18:45:01 58° E 18:49:19 10° NNE
STARLINK-1225 3.7 18:43:22 10° SW 18:47:18 55° SE 18:51:16 10° ENE
Cosmos 1110 Rocket 4.0 18:42:21 10° NNW 18:47:39 89° ENE 18:52:52 10° SSE
Cosmos 332 Rocket 4.4 18:43:59 10° NNW 18:48:51 63° WSW 18:53:41 10° S
STARLINK-1203 3.5 18:45:21 10° SW 18:49:14 61° SE 18:53:08 10° ENE
STARLINK-1072 3.5 18:46:55 10° WNW 18:50:55 82° NNE 18:54:14 15° ESE
SL-16 R/B 2.5 18:45:52 10° S 18:51:13 45° ESE 18:56:35 10° NE
Cosmos 1892 Rocket 3.8 18:46:50 10° NNW 18:51:20 80° W 18:55:48 10° S
Cosmos 2333 Rocket 4.2 18:46:50 10° WSW 18:51:51 31° NW 18:56:52 10° NNE
STARLINK-1230 3.6 18:47:58 10° SW 18:51:56 59° SE 18:55:55 10° ENE
Cosmos 1626 Rocket 4.1 18:48:46 10° N 18:52:55 38° ENE 18:56:59 10° SE
USA 186 1.9 18:50:47 10° SSE 18:54:12 64° ENE 18:57:34 10° N
Cosmos 1953 3.9 18:53:54 15° ESE 18:55:09 17° E 18:57:44 10° NE
ARGOS Delta rocket 4.1 18:50:09 10° SSE 18:55:14 88° E 19:00:37 10° N
STARLINK-1234 3.1 18:52:16 10° WSW 18:55:15 66° NNW 18:58:15 10° ENE
STARLINK-1096 3.5 18:51:22 10° WNW 18:55:23 86° NNE 18:58:31 16° ESE
Cosmos 1626 2.2 18:52:13 10° N 18:55:53 54° ENE 18:59:30 10° SSE
STARLINK-1243 3.5 18:52:37 10° SW 18:56:37 64° SE 19:00:37 10° ENE
Okean 1-7 Rocket 3.7 18:54:51 10° NNW 18:59:16 77° W 19:03:37 10° S
STARLINK-1101 4.5 18:55:39 10° WNW 18:59:37 42° NNE 19:02:46 15° E
STARLINK-1079 3.5 18:55:50 10° WNW 18:59:52 89° SSW 19:02:49 17° ESE
Cosmos 1602 Rocket 4.2 18:56:18 10° N 19:00:28 36° ENE 19:03:54 14° SE
STARLINK-1236 3.5 18:57:15 10° SW 19:01:16 69° SE 19:05:18 10° ENE
ATLAS 2AS CENTAUR R/B 4.2 18:57:39 10° NW 19:04:11 28° NNE 19:10:15 10° ENE
STARLINK-1116 3.5 19:00:19 10° WNW 19:04:20 84° SSW 19:07:08 19° SE
STARLINK-1102 4.4 19:00:38 10° WNW 19:04:37 43° NNE 19:07:32 17° E
H-2A R/B 2.1 19:00:44 10° SSE 19:06:05 87° WSW 19:11:19 10° NNW
STARLINK-1111 4.3 19:05:37 10° WNW 19:09:36 44° NNE 19:12:19 19° E
Aureole 2 Rocket 4.1 19:07:15 10° N 19:09:46 18° ENE 19:10:31 17° ENE
Cosmos 883 Rocket 4.4 19:03:58 10° S 19:10:08 78° E 19:16:25 10° N
STARLINK-1269 3.4 19:06:38 10° SW 19:10:40 79° SSE 19:14:26 12° ENE
Cosmos 1544 Rocket 3.5 19:08:03 10° S 19:12:26 85° E 19:16:54 10° N
ERBS 4.3 19:09:47 10° W 19:12:44 28° NNW 19:15:43 10° NE
STARLINK-1094 3.6 19:09:18 10° WNW 19:13:19 74° SSW 19:15:46 22° SE
STARLINK-1073 4.3 19:10:36 10° WNW 19:14:37 46° NNE 19:17:06 21° E
USA 234 3.3 19:08:48 10° ENE 19:15:17 62° SE 19:21:45 10° SW
STARLINK-1200 3.5 19:11:19 10° WSW 19:15:22 84° SSE 19:18:56 13° ENE
Cosmos 2297 3.7 19:09:44 10° NNW 19:15:27 89° WSW 19:20:56 11° SSE
CZ-2C R/B 3.9 19:11:14 10° NNE 19:15:54 52° E 19:20:29 10° S
STARLINK-1117 3.7 19:13:49 10° WNW 19:17:49 69° SW 19:20:07 24° SE
STARLINK-1121 4.2 19:15:35 10° WNW 19:19:37 48° NNE 19:21:53 23° E
STARLINK-1192 3.5 19:15:57 10° WSW 19:20:00 89° SSE 19:23:24 14° ENE
Cosmos 2237 Rocket 3.4 19:16:10 10° SW 19:21:33 45° NW 19:26:58 10° NNE
STARLINK-1078 3.7 19:18:19 10° WNW 19:22:18 64° SW 19:24:26 26° SE
STARLINK-1106 4.1 19:20:33 10° WNW 19:24:36 50° NNE 19:26:39 26° E
STARLINK-1244 3.5 19:20:45 10° WSW 19:24:48 86° NNW 19:28:01 16° ENE
Cosmos 1302 Rocket 4.0 19:19:54 10° NNW 19:25:13 89° E 19:29:43 14° SSE
STARLINK-1201 3.6 19:22:00 10° WSW 19:25:13 54° NNW 19:27:30 18° NE
STARLINK-1108 3.8 19:22:51 10° WNW 19:26:50 60° SW 19:28:47 27° SE
Cosmos 2278 Rocket 4.5 19:22:50 10° NW 19:27:12 23° WSW 19:31:34 10° SSW
CZ-2C R/B 2.9 19:23:01 10° NNE 19:27:56 41° E 19:32:38 11° SSE
Cosmos 2184 Rocket 4.4 19:22:36 10° N 19:28:39 44° ENE 19:32:14 23° SE
Cosmos 1269 Rocket 4.2 19:23:24 10° SSW 19:28:41 75° WNW 19:34:00 10° NNE
Cosmos 1758 Rocket 4.3 19:25:09 10° N 19:29:07 33° ENE 19:30:09 29° ESE
STARLINK-1138 3.6 19:25:27 10° WSW 19:29:30 81° NNW 19:32:32 17° ENE
STARLINK-1112 4.0 19:25:33 10° WNW 19:29:37 53° NNE 19:31:27 29° E
STARLINK-1209 4.0 19:27:54 10° W 19:30:37 37° NNW 19:32:14 19° NE
STARLINK-1066 4.4 19:28:17 10° WNW 19:31:07 30° SW 19:32:18 23° S
STARLINK-1071 3.9 19:27:22 10° WNW 19:31:20 55° SW 19:33:08 29° SSE
STARLINK-1081 4.4 19:28:46 10° WNW 19:31:33 29° SW 19:32:41 23° S
STARLINK-1228 4.1 19:28:53 10° W 19:31:36 36° NNW 19:33:08 20° NE
STARLINK-1070 4.4 19:29:13 10° WNW 19:31:59 29° SW 19:33:06 23° S
STARLINK-1124 4.0 19:28:17 10° WNW 19:32:20 55° SW 19:34:14 29° SSE
STARLINK-1069 4.4 19:29:37 10° WNW 19:32:26 29° SW 19:33:34 23° S
STARLINK-1085 4.4 19:30:05 10° WNW 19:32:52 29° SW 19:34:00 23° S
STARLINK-1086 4.4 19:30:36 10° WNW 19:33:21 28° SW 19:34:25 23° S
STARLINK-1095 4.4 19:31:02 10° WNW 19:33:47 28° SW 19:34:50 23° S
STARLINK-1077 4.4 19:31:28 10° WNW 19:34:13 28° SW 19:35:16 23° S
ARGOS 3.6 19:28:53 10° S 19:34:14 61° W 19:39:36 10° NNW
STARLINK-1143 3.6 19:30:14 10° WSW 19:34:17 76° NNW 19:37:08 19° ENE
STARLINK-1128 4.0 19:30:32 10° WNW 19:34:38 55° NNE 19:36:15 32° E
STARLINK-1075 4.5 19:31:57 10° WNW 19:34:41 28° SW 19:35:42 23° S
STARLINK-1093 4.5 19:32:22 10° WNW 19:35:07 28° SW 19:36:11 22° S
SL-8 R/B 3.8 19:30:46 10° W 19:35:33 72° N 19:38:03 28° E
Cosmos 2251 Rocket 4.0 19:30:38 10° S 19:35:33 39° ESE 19:40:31 10° NE
STARLINK-1074 4.5 19:32:48 10° WNW 19:35:34 28° SW 19:36:36 22° S
STARLINK-1110 4.1 19:31:55 10° WNW 19:35:50 51° SW 19:37:29 30° SSE
STARLINK-1087 4.5 19:33:19 10° WNW 19:36:02 27° SW 19:37:00 22° S
STARLINK-1088 4.5 19:33:46 10° W 19:36:29 27° SW 19:37:26 22° S
SL-24 R/B 4.0 19:33:08 10° NNE 19:37:50 76° ESE 19:41:55 10° S
STARLINK-1113 3.9 19:35:31 10° WNW 19:39:37 58° NNE 19:41:02 36° E
Cosmos 1470 2.9 19:37:28 10° SSW 19:41:19 73° W 19:45:13 10° N
STARLINK-1119 3.8 19:40:29 10° WNW 19:44:36 61° NNE 19:45:48 41° E
STARLINK-1241 3.8 19:40:44 10° WSW 19:44:44 67° NNW 19:47:06 23° NE
STARLINK-1122 4.3 19:41:07 10° WNW 19:44:58 44° SW 19:46:17 32° S
STARLINK-1233 4.1 19:42:04 10° W 19:45:04 40° NNW 19:46:21 26° NNE
SL-08 RB Rocket 4.2 19:40:58 10° S 19:45:24 59° W 19:49:56 10° NNW
STARLINK-1212 4.1 19:42:32 10° W 19:45:30 39° NNW 19:46:46 26° NNE
Cosmos 2315 Rocket 4.2 19:39:15 10° SSW 19:45:33 74° W 19:51:56 10° N
STARLINK-1105 4.1 19:42:58 10° W 19:45:57 39° NNW 19:47:13 26° NNE
STARLINK-1206 4.1 19:43:28 10° W 19:46:26 39° NNW 19:47:37 27° NNE
SJ-6B 4.1 19:42:43 10° S 19:46:35 42° W 19:50:31 10° NNW
STARLINK-1247 4.1 19:43:55 10° W 19:46:53 39° NNW 19:48:03 27° NNE
MetOp-A 4.2 19:42:29 15° SSE 19:46:58 82° WSW 19:52:22 10° NNW
Resurs 1-3 3.5 19:44:44 25° SSE 19:47:16 87° WSW 19:51:42 10° NNW
STARLINK-1227 4.1 19:44:19 10° W 19:47:18 39° NNW 19:48:30 27° NNE
ISS -3.2 19:44:27 10° WNW 19:47:44 49° NNE 19:48:11 45° NE
STARLINK-1218 4.1 19:44:49 10° W 19:47:47 38° NNW 19:48:55 27° NNE
STARLINK-1226 4.1 19:45:17 10° W 19:48:15 38° NNW 19:49:22 27° NNE
STARLINK-1254 4.2 19:45:41 10° W 19:48:39 38° NNW 19:49:48 27° NNE
STARLINK-1215 4.2 19:46:12 10° W 19:49:09 38° NNW 19:50:14 28° NNE
ERS-1 Rocket 4.3 19:48:48 22° ENE 19:49:10 22° ENE 19:52:59 10° NNE
Cosmos 1758 3.7 19:45:10 10° SSW 19:49:14 66° W 19:53:20 10° N
STARLINK-1239 3.9 19:45:20 10° WSW 19:49:19 63° NNW 19:51:30 25° NE
Cosmos 2154 Rocket 4.5 19:43:32 10° N 19:49:32 42° ENE 19:51:33 33° ESE
STARLINK-1126 4.4 19:45:46 10° WNW 19:49:35 41° SW 19:50:44 32° S
STARLINK-1231 4.2 19:46:38 10° W 19:49:35 38° NNW 19:50:39 28° NNE
STARLINK-1114 3.7 19:45:29 10° WNW 19:49:37 65° NNE 19:50:36 47° E
STARLINK-1232 4.2 19:47:34 10° W 19:50:29 37° NNW 19:51:31 28° NNE
STARLINK-1217 4.2 19:48:00 10° W 19:50:57 37° NNW 19:51:58 28° NNE
STARLINK-1208 4.2 19:48:25 10° W 19:51:23 37° NNW 19:52:25 28° NNE
STARLINK-1229 4.2 19:48:55 10° W 19:51:51 37° NNW 19:52:48 29° NNE
STARLINK-1271 4.2 19:49:23 10° W 19:52:19 37° NNW 19:53:17 29° NNE
BREEZE-M DEB (TANK) 3.5 19:46:10 10° WNW 19:52:28 67° N 19:53:10 50° ENE
IRIDIUM 104 4.2 19:47:30 10° N 19:52:45 88° E 19:56:26 20° S
STARLINK-1270 4.2 19:49:50 10° W 19:52:46 36° NNW 19:53:42 29° NNE
CZ-2C R/B 4.3 19:48:20 10° SSW 19:53:02 37° W 19:57:35 10° NNW
BREEZE M DEB (TANK) 4.1 19:43:29 10° SW 19:53:09 38° SSE 19:53:49 36° SE
STARLINK-1154 4.2 19:50:17 10° W 19:53:13 36° NNW 19:54:08 29° NNE
STARLINK-1240 4.0 19:49:57 10° WSW 19:53:56 60° NNW 19:55:56 27° NE
STARLINK-1197 4.3 19:51:11 10° W 19:54:07 36° NNW 19:54:59 29° NNE
STARLINK-1189 4.3 19:51:39 10° W 19:54:34 36° NNW 19:55:25 29° NNE
STARLINK-1130 (DARKSAT) 3.7 19:50:26 10° WNW 19:54:35 69° NNE 19:55:22 53° E
Resurs 01 Rocket 1.5 19:53:04 40° SSE 19:54:37 79° ENE 19:59:04 10° N
STARLINK-1188 4.3 19:52:33 10° W 19:55:28 36° NNW 19:56:17 30° NNE
STARLINK-1187 4.4 19:52:32 10° W 19:55:28 34° NNW 19:56:21 28° NNE
SPOT 5 4.4 19:56:05 17° NE 19:56:05 17° NE 19:58:28 10° NNE
STARLINK-1198 4.3 19:52:47 10° W 19:55:42 35° NNW 19:56:31 30° NNE
Cosmos 2369 Rocket 2.2 19:50:10 10° NNW 19:55:52 64° ENE 19:57:50 40° SE
STARLINK-1235 4.5 19:53:18 10° W 19:56:11 32° NNW 19:57:05 27° NNE
STARLINK-1199 4.3 19:54:30 10° W 19:57:26 35° NNW 19:58:13 30° NNE
STARLINK-1191 4.3 19:54:58 10° W 19:57:54 35° NNW 19:58:39 30° NNE
STARLINK-1210 4.3 19:55:25 10° W 19:58:20 35° NNW 19:59:04 30° NNE
STARLINK-1216 4.1 19:54:37 10° WSW 19:58:34 57° NNW 20:00:23 29° NE
STARLINK-1221 4.3 19:55:53 10° W 19:58:49 35° NNW 19:59:33 30° NNE
STARLINK-1219 4.3 19:56:19 10° W 19:59:15 35° NNW 19:59:58 30° NNE
Cosmos 2263 4.4 19:54:03 10° NNW 19:59:33 51° ENE 20:01:00 41° ESE
STARLINK-1084 3.6 19:55:25 10° WNW 19:59:34 73° NNE 20:00:09 61° E
STARLINK-1222 4.3 19:56:46 10° W 19:59:42 34° NNW 20:00:23 31° NNE
STARLINK-1211 4.3 19:57:14 10° W 20:00:09 34° NNW 20:00:48 31° NNE
STARLINK-1214 4.3 19:57:42 10° W 20:00:37 34° NNW 20:01:15 31° NNE
STARLINK-1245 4.3 19:58:12 10° W 20:01:05 34° NNW 20:01:40 31° N
STARLINK-1238 4.3 19:58:37 10° W 20:01:31 34° NNW 20:02:07 31° N
IRIDIUM 114 4.4 19:56:40 10° N 20:01:55 78° W 20:05:35 20° S
STARLINK-1205 4.3 19:59:35 10° W 20:02:28 33° NNW 20:02:59 31° N
STARLINK-1204 4.3 20:00:01 10° W 20:02:53 33° NNW 20:03:23 31° N
STARLINK-1237 4.1 19:59:18 10° W 20:03:15 54° NNW 20:04:52 32° NE
STARLINK-1098 3.5 20:00:23 10° WNW 20:04:32 77° NNE 20:04:55 69° E
SPOT 3 Rocket 4.3 20:00:43 13° S 20:05:14 52° W 20:10:21 10° NNW
Cosmos 1726 2.5 20:06:30 52° NE 20:06:30 52° NE 20:09:30 10° NNE
Landsat 7 4.4 20:06:34 40° ENE 20:06:36 40° ENE 20:11:03 10° N
STARLINK-1202 4.2 20:03:57 10° W 20:07:53 52° NNW 20:09:18 34° NE
Meteor 1-21 Rocket 4.3 20:02:49 10° NNW 20:08:23 74° W 20:11:31 27° S
Nadezhda 1 Rocket 4.1 20:06:17 37° SSE 20:08:36 55° E 20:14:48 10° NNE
STARLINK-1123 3.4 20:05:23 10° WNW 20:09:33 82° NNE 20:09:44 79° ENE
Cosmos 2228 3.7 20:11:02 40° NE 20:11:02 40° NE 20:14:09 10° NNE
MOS 1 Rocket 3.6 20:07:44 10° N 20:12:57 80° WNW 20:18:21 10° SSW
STARLINK-1246 4.3 20:09:05 10° W 20:13:02 50° NNW 20:14:18 36° NNE
STARLINK-1097 3.5 20:10:20 10° WNW 20:14:29 87° N 20:14:29 87° N
Cosmos 292 Rocket 3.8 20:13:20 10° NNW 20:18:07 73° WSW 20:19:07 54° S
Cosmos 1943 3.5 20:19:28 47° E 20:19:28 47° E 20:24:07 10° NE
STARLINK-1099 3.6 20:15:20 10° WNW 20:19:17 80° WNW 20:19:17 80° WNW
Cosmos 1943 Rocket 2.4 20:15:35 10° NNW 20:21:04 66° WSW 20:22:51 42° S
STARLINK-1224 4.5 20:18:01 10° W 20:21:55 46° NNW 20:22:45 39° NNE
Cosmos 2074 Rocket 4.1 20:17:15 10° NNW 20:23:30 75° W 20:26:45 30° S
NOSS 3-4 (A) 4.4 20:17:07 10° NNW 20:23:39 45° NE 20:25:57 35° E
NOSS 3-4 (C) 4.4 20:17:13 10° NNW 20:23:44 45° NE 20:26:03 35° E
STARLINK-1104 3.8 20:20:20 10° WNW 20:24:04 71° W 20:24:04 71° W
Cosmos 1328 4.3 20:23:37 10° N 20:26:45 52° N 20:26:45 52° N
STARLINK-1144 4.0 20:25:17 10° WNW 20:28:50 62° W 20:28:50 62° W
Cosmos 1953 3.5 20:29:29 26° SW 20:31:13 41° WNW 20:35:00 10° N
Meteor 2-10 4.3 20:28:34 24° SSW 20:31:51 71° WNW 20:37:24 10° N
SPOT 1/Viking Rocket 3.6 20:32:06 62° ENE 20:32:06 62° ENE 20:37:13 10° N
NOSS 3-3 (A) 3.7 20:27:08 10° SSW 20:32:57 73° SE 20:39:32 10° NE
NOSS 3-3 (C) 3.7 20:27:15 10° SSW 20:33:03 73° SE 20:39:38 10° NE
Spot 2 Rocket 3.4 20:33:06 72° S 20:33:39 86° WSW 20:38:49 10° NNW
STARLINK-1103 4.2 20:30:16 10° WNW 20:33:37 54° W 20:33:37 54° W
SL-16 R/B 3.8 20:30:22 10° WSW 20:35:28 34° NW 20:40:36 10° NNE
Cosmos 2084 Rocket 3.9 20:31:08 10° NW 20:35:19 56° WSW 20:35:19 56° WSW
Cosmos 1610 Rocket 4.4 20:31:18 10° N 20:37:35 87° W 20:39:03 55° S
STARLINK-1101 4.4 20:35:16 10° WNW 20:38:25 48° W 20:38:25 48° W
IGS 5A 4.3 20:42:15 46° N 20:42:15 46° N 20:45:15 10° N
Aureole 2 Rocket 4.3 20:40:28 10° NW 20:42:44 29° WNW 20:42:44 29° WNW
Terra 3.0 20:49:36 32° NNE 20:49:36 32° NNE 20:52:41 10° N
Cosmos 2341 Rocket 3.9 20:47:24 10° N 20:53:46 70° E 20:53:51 70° E
Cosmos 1726 Rocket 4.5 20:55:09 46° NNW 20:55:09 46° NNW 20:58:28 10° N
ATLAS 2AS CENTAUR R/B 2.8 20:49:01 10° NW 20:56:41 66° NE 20:57:41 60° E
Cosmos 1603 3.9 20:53:26 25° SW 20:56:48 69° WNW 21:02:26 10° NNE
USA 234 3.8 20:51:55 10° NE 20:58:16 55° NNW 21:04:37 10° W
Aureole 1 Rocket 4.2 21:07:14 73° SSE 21:07:51 77° ESE 21:14:34 10° NNE
CZ-2C R/B 4.3 21:03:38 10° N 21:08:04 29° WNW 21:12:29 10° WSW
COSMOS 2455 3.5 21:05:47 10° NNW 21:11:09 43° NE 21:11:09 43° NE
Cosmos 2218 Rocket 4.2 21:16:18 10° N 21:21:26 59° NNE 21:21:26 59° NNE
Cosmos 1656 Rocket 4.2 21:17:46 10° NNW 21:22:37 54° WNW 21:22:37 54° WNW
ERS-1 Rocket 3.9 21:28:47 44° NW 21:28:47 44° NW 21:32:32 10° NNW
Resurs 01 Rocket 4.4 21:30:38 11° WSW 21:31:41 11° W 21:33:12 10° WNW
Cosmos 2181 Rocket 4.3 21:33:10 61° N 21:33:10 61° N 21:38:13 10° N
SPOT 5 4.5 21:35:19 29° NW 21:35:19 29° NW 21:37:36 10° NNW
Cosmos 2369 Rocket 4.0 21:35:08 10° NW 21:39:22 22° W 21:39:39 22° WSW
CZ-4C R/B 4.4 21:58:15 10° NNW 22:03:41 25° NNE 22:06:33 20° NE
Mayak 1.7 22:06:36 10° N 22:06:55 12° N 22:06:55 12° N
NOSS 3-4 (A) 4.4 22:07:59 10° NW 22:13:23 49° W 22:13:23 49° W
NOSS 3-4 (C) 4.4 22:08:04 10° NW 22:13:29 49° W 22:13:29 49° W
Terra 4.3 22:28:30 17° NW 22:28:30 17° NW 22:30:03 10° NW
Cosmos 1697 Rocket 4.4 22:22:54 10° NNW 22:26:03 27° NNE 22:26:03 27° NNE
USA 234 4.5 22:34:42 10° ENE 22:40:34 37° N 22:46:26 10° WNW
ATLAS 2AS CENTAUR R/B 4.2 22:40:41 10° NW 22:45:08 28° W 22:45:08 28° W
Cosmos 1980 Rocket 4.1 22:48:01 10° NNW 22:50:54 24° NNE 22:50:54 24° NNE
